Location: Caltech
(34.1382°N, 118.1253°W)
Time: 11:22:41
(UTC-08:00)

Iridium 14 - Visible Passes

Search period start: 19 November 2017 00:00
Search period end: 29 November 2017 00:00
Orbit: 776 x 779 km, 86.4° (Epoch: 19 November)

Date Brightness Start Highest point End Pass type
(mag) Time Alt. Az. Time Alt. Az. Time Alt. Az.
19 Nov 6.6 18:34:46 10° N 18:39:52 57° W 18:44:57 10° SSW visible
20 Nov 8.1 05:47:35 10° SE 05:52:05 30° E 05:56:35 10° NNE visible
20 Nov 5.9 18:01:10 10° N 18:06:24 74° E 18:11:35 10° S visible
21 Nov 8.9 05:15:48 10° ESE 05:18:50 16° E 05:21:53 10° NE visible
21 Nov 6.5 17:27:58 10° NNE 17:32:48 37° E 17:37:36 10° SSE visible
21 Nov 8.5 19:09:28 10° NW 19:13:10 20° W 19:16:52 10° SW visible
22 Nov 7.4 18:35:05 10° NNW 18:39:52 38° W 18:44:39 10° SSW visible
23 Nov 7.3 05:47:08 10° SSE 05:52:04 45° E 05:57:01 10° NNE visible
23 Nov 6.2 18:01:15 10° N 18:06:28 75° W 18:11:39 10° S visible
24 Nov 8.5 05:14:41 10° SE 05:18:45 23° E 05:22:49 10° NNE visible
24 Nov 6.1 17:27:49 10° N 17:32:57 56° E 17:38:03 10° SSE visible
24 Nov 9.0 19:10:42 10° NW 19:13:04 13° W 19:15:27 10° WSW visible
25 Nov 9.1 04:43:40 10° E 04:45:32 12° E 04:47:25 10° ENE visible
25 Nov 8.2 18:35:36 10° NNW 18:39:51 26° W 18:44:05 10° SW visible
26 Nov 6.4 05:46:56 10° S 05:52:06 68° E 05:57:16 10° N visible
26 Nov 7.0 18:01:29 10° NNW 18:06:30 49° W 18:11:30 10° SSW visible
27 Nov 7.7 05:14:02 10° SSE 05:18:42 35° E 05:23:23 10° NNE visible
27 Nov 6.0 17:27:49 10° N 17:33:03 84° E 17:38:16 10° S visible
28 Nov 8.7 04:41:58 10° ESE 04:45:26 18° E 04:48:53 10° NE visible
28 Nov 8.8 18:36:26 10° NW 18:39:46 17° W 18:43:06 10° WSW visible
